Location: Ravensburg
(47.7866°N, 9.6124°E)
Time: 06:27:13
(UTC+02:00)

AO-73 - Pass Details

Date: 15 March 2026
Orbit: 514 x 567 km, 97.8° (Epoch: 17 April)

Event Time Altitude Azimuth Distance (km) Brightness Sun altitude
Rises 05:04:55 0° 2° (N) 2,677 ? -15.8°
Reaches altitude 10° 05:07:17 10° 350° (N) 1,774 ? -15.5°
Maximum altitude 05:10:26 25° 294° (WNW) 1,076 ? -14.9°
Enters shadow 05:10:51 25° 283° (WNW) 1,090 ? -14.9°
